Flag for Germany Weather past 2 weeks in Kamp-Lintfort, North Rhine-Westphalia, Germany

Now
84 °F

Passing clouds.


Feels Like: 88 °F
Forecast: 69 / 86 °F
Wind: 3 mph from South

Location: Duesseldorf

Current Time: Aug 30, 2015 at 2:12:10 PM

Latest Report: Aug 30, 2015 at 1:00 PM


Visibility: 25 mi

Pressure: 30.00 "Hg

Humidity: 58%

Dew point: 68 °F

Location of Kamp-LintfortLocation

Historic Weather in Kamp-Lintfort — Graph

°F

Kamp-Lintfort temperature yesterday

Maximum temperature yesterday: 78 °F (at 6:00 PM)
Minimum temperature yesterday: 51 °F (at 5:00 AM)
Average temperature yesterday: 65 °F

Past Weeks' High & Low Weather Summary

 TemperatureHumidityPressure
High84 °F (Aug 30, 1:00 PM)98% (Aug 19, 5:00 AM)30.26 "Hg (Aug 19, 5:00 AM)
Low49 °F (Aug 19, 5:00 AM)33% (Aug 23, 2:00 PM)29.53 "Hg (Aug 24, 6:00 PM)
Average65 °F74%29.98 "Hg
* Reported Aug 15 1:00 PM — Aug 30 1:00 PM, Kamp-Lintfort, Weather by CustomWeather, © 2015

Note: Actual official high and low records may vary slightly from our data, if they occured in-between our weather recording intervals... More about our weather records

Advertising

Kamp-Lintfort weather history for previous 24 hours

 ConditionsComfort  
Time TempWeatherWind HumidityBarometerVisibility
1:00 PM
Sun, Aug 30
84 °FPassing clouds.3 mph58%30.00 "Hg25 mi
12:00 PM82 °FPassing clouds.3 mph63%30.00 "Hg28 mi
11:00 AM77 °FPassing clouds.2 mph72%30.01 "Hg28 mi
10:00 AM71 °FPartly sunny.1 mph78%30.04 "Hg28 mi
9:00 AM69 °FPartly sunny.2 mph78%30.04 "Hg25 mi
8:00 AM66 °FPartly sunny.5 mph86%30.03 "Hg28 mi
7:00 AM64 °FScattered clouds.3 mph89%30.04 "Hg31 mi
6:00 AM65 °FPassing clouds.3 mph90%30.03 "Hg34 mi
4:00 AM64 °FPassing clouds.2 mph92%30.03 "Hg31 mi
3:00 AM64 °FPassing clouds.1 mph93%30.06 "Hg31 mi
2:00 AM64 °FPassing clouds.1 mph92%30.07 "Hg31 mi
1:00 AM64 °FPassing clouds.1 mph90%30.08 "Hg31 mi
12:00 AM66 °FPassing clouds.1 mph89%30.09 "Hg31 mi
10:00 PM
Sat, Aug 29
67 °FPassing clouds.2 mph87%30.11 "Hg31 mi
9:00 PM70 °FPassing clouds.2 mph79%30.11 "Hg34 mi
8:00 PM74 °FScattered clouds.2 mph66%30.10 "Hg34 mi
7:00 PM76 °FPassing clouds.2 mph60%30.11 "Hg34 mi
6:00 PM78 °FScattered clouds.1 mph54%30.11 "Hg34 mi
5:00 PM78 °FPassing clouds.1 mph52%30.13 "Hg31 mi
4:00 PM78 °FScattered clouds.2 mph55%30.14 "Hg31 mi
3:00 PM75 °FScattered clouds.2 mph53%30.16 "Hg31 mi
2:00 PM74 °FScattered clouds.1 mph55%30.17 "Hg31 mi
Weather by CustomWeather, © 2015

See weather overviewHow to use our weather pages